Weather in Filimonovka

Russia / Tomsk District     57°10′48″N   85°49′13″E
temp.,
°C
wind,
m/s
gust,
m/s
humid.,
%
clouds,
%
prec.,
mm/h
press.,
hPa
HPBL,
m
17 may, mon
mon1701:00+5nne11948 0.0 101510
04:00+5nw119342 0.0 101410
07:00+7nw128871 0.0 1015123
10:00+12nnw237396 0.0 1015766
13:00+11nw237697 0.0 1015522
16:00+12nw127199 0.0 1015619
19:00+12nw2373100 0.0 1014565
22:00+8se22935 0.0 101218
18 may, tue
tue1801:00+8se2492100 0.0 101098
04:00+8se3796100 0.0 1007152
07:00+9se3798100 7.9 1001270
10:00+12se1697100 3.1 997413
13:00+7n61396100 18.9 1001521
16:00+8nne4891100 0.3 1007827
19:00+9nne258458 0.3 1009522
22:00+6w229499 0.0 101017
19 may, wed
wed1901:00+5nne2781100 0.0 1010162
04:00+2nne25825 0.0 1011101
07:00+3nne387569 0.0 1011276
10:00+8nne46455 0.0 10111201
13:00+9n5637100 0.0 10112391
16:00+9n6733100 0.0 10122413
19:00+8n474274 0.0 10122355
22:00+2nnw386258 0.0 1013232
20 may, thu
thu2001:000nnw39725 0.0 1014244
04:00−1nnw3107389 0.0 1014343
07:000nnw49610 0.0 1015422
10:00+5nnw5747100 0.0 10151769
13:00+8nnw5835100 0.0 10142613
16:00+9n5835100 0.0 10142527
19:00+10nnw474012 0.0 10162163
22:00+4nw39625 0.0 1017192
21 may, fri
fri2101:00+2nw276713 0.0 1018109
04:00+1wnw24706 0.0 101984
07:00+4wnw2462100 0.0 1020148
10:00+9w3440100 0.0 10201054
13:00+12wsw3532100 0.0 10201887
16:00+13wsw453185 0.0 10192034
19:00+12wsw3540100 0.0 10192014
22:00+7s235968 0.0 101952